,,,PA_Meas_PMT16A,,PR_Meas_QMR101_102,,RH_Meas_QMH101,,SR_Meas_QMS101,,TA_Meas_QMH101,,GenWind,,GenWind,
date,time,status,PA,status,PR,status,RH,status,SR,status,TA,status,DirAvg,status,SpdAvg,
2012-05-17, 00:00:05,VALID,999.486,VALID,0,VALID,92.9364,VALID,0,VALID,23.8183,VALID,5,VALID,0,
2012-05-17, 00:01:05,VALID,999.456,VALID,0,VALID,92.9211,VALID,0,VALID,23.8183,VALID,5,VALID,0,
2012-05-17, 00:02:05,VALID,999.432,VALID,0,VALID,93.0051,VALID,0,VALID,23.7988,VALID,5,VALID,0,
2012-05-17, 00:03:05,VALID,999.434,VALID,0,VALID,93.0127,VALID,0,VALID,23.7579,VALID,186,VALID,0.626562,
2012-05-17, 00:04:05,VALID,999.468,VALID,0,VALID,92.677,VALID,0,VALID,23.7402,VALID,173,VALID,0.567969,
2012-05-17, 00:05:05,VALID,999.432,VALID,0,VALID,92.2955,VALID,0,VALID,23.7597,VALID,158,VALID,1.16562,
2012-05-17, 00:06:05,VALID,999.441,VALID,0,VALID,91.9751,VALID,0,VALID,23.8963,VALID,157,VALID,1.26445,
2012-05-17, 00:07:05,VALID,999.472,VALID,0,VALID,91.2197,VALID,0,VALID,23.9921,VALID,159,VALID,1.14844,
2012-05-17, 00:08:05,VALID,999.446,VALID,0,VALID,90.5254,VALID,0,VALID,24.111,VALID,159,VALID,0.853906,
2012-05-17, 00:09:05,VALID,999.435,VALID,0,VALID,90.0982,VALID,0,VALID,24.1482,VALID,159,VALID,0.672656,
2012-05-17, 00:10:05,VALID,999.437,VALID,0,VALID,89.7167,VALID,0,VALID,24.2067,VALID,159,VALID,0.635547,
2012-05-17, 00:11:05,VALID,999.436,VALID,0,VALID,89.6175,VALID,0,VALID,24.2458,VALID,159,VALID,0.550781,
2012-05-17, 00:12:05,VALID,999.456,VALID,0,VALID,89.236,VALID,0.104696,VALID,24.2866,VALID,159,VALID,0.229297,
2012-05-17, 00:13:05,VALID,999.411,VALID,0,VALID,89.0453,VALID,0,VALID,24.2281,VALID,159,VALID,0,
2012-05-17, 00:14:05,VALID,999.391,VALID,0,VALID,89.7396,VALID,0,VALID,24.1696,VALID,168,VALID,0.416016,
2012-05-17, 00:15:05,VALID,999.394,VALID,0,VALID,90.4873,VALID,0,VALID,24.0701,VALID,236,VALID,0.604297,
2012-05-17, 00:16:05,VALID,999.371,VALID,0,VALID,90.9069,VALID,0,VALID,23.9744,VALID,321,VALID,0.753125,
2012-05-17, 00:17:05,VALID,999.363,VALID,0,VALID,91.8454,VALID,0,VALID,23.875,VALID,324,VALID,0.611328,
2012-05-17, 00:18:05,VALID,999.344,VALID,0,VALID,92.41,VALID,0,VALID,23.8573,VALID,324,VALID,0.580469,
2012-05-17, 00:19:05,VALID,999.352,VALID,0,VALID,92.7228,VALID,0,VALID,23.797,VALID,324,VALID,0.464844,
2012-05-17, 00:20:05,VALID,999.353,VALID,0,VALID,92.8601,VALID,0,VALID,23.7597,VALID,324,VALID,0.301172,
2012-05-17, 00:21:05,VALID,999.353,VALID,0,VALID,93.0814,VALID,0,VALID,23.7384,VALID,324,VALID,0.271094,
2012-05-17, 00:22:05,VALID,999.324,VALID,0,VALID,93.234,VALID,0,VALID,23.7207,VALID,324,VALID,0.0515625,
2012-05-17, 00:23:05,VALID,999.326,VALID,0,VALID,93.3103,VALID,0,VALID,23.7012,VALID,324,VALID,0,
2012-05-17, 00:24:05,VALID,999.383,VALID,0,VALID,93.4094,VALID,0,VALID,23.6817,VALID,324,VALID,0,
2012-05-17, 00:25:05,VALID,999.367,VALID,0,VALID,93.4247,VALID,0,VALID,23.6214,VALID,324,VALID,0,
2012-05-17, 00:26:05,VALID,999.362,VALID,0,VALID,93.3789,VALID,0,VALID,23.6036,VALID,324,VALID,0,
2012-05-17, 00:27:05,VALID,999.383,VALID,0,VALID,93.4628,VALID,0.104696,VALID,23.5841,VALID,324,VALID,0.223828,
2012-05-17, 00:28:05,VALID,999.364,VALID,0,VALID,93.4934,VALID,0,VALID,23.5646,VALID,324,VALID,0.371484,
2012-05-17, 00:29:05,VALID,999.347,VALID,0,VALID,93.4705,VALID,0,VALID,23.5451,VALID,324,VALID,0.378906,
2012-05-17, 00:30:05,VALID,999.346,VALID,0,VALID,93.4094,VALID,0,VALID,23.5061,VALID,324,VALID,0.228125,
2012-05-17, 00:31:05,VALID,999.343,VALID,0,VALID,93.3103,VALID,0.104696,VALID,23.4866,VALID,324,VALID,0,
2012-05-17, 00:32:05,VALID,999.327,VALID,0,VALID,93.2874,VALID,0,VALID,23.4263,VALID,324,VALID,0,
2012-05-17, 00:33:05,VALID,999.311,VALID,0,VALID,93.5391,VALID,0,VALID,23.428,VALID,324,VALID,0.189844,
2012-05-17, 00:34:05,VALID,999.328,VALID,0,VALID,93.8443,VALID,0,VALID,23.4493,VALID,324,VALID,0.103906,
2012-05-17, 00:35:05,VALID,999.317,VALID,0,VALID,94.0808,VALID,0,VALID,23.4688,VALID,324,VALID,0,
2012-05-17, 00:36:05,VALID,999.315,VALID,0,VALID,94.2029,VALID,0,VALID,23.4475,VALID,324,VALID,0,
2012-05-17, 00:37:05,VALID,999.321,VALID,0,VALID,94.3097,VALID,0,VALID,23.4475,VALID,324,VALID,0,
2012-05-17, 00:38:05,VALID,999.304,VALID,0,VALID,94.4165,VALID,0,VALID,23.4475,VALID,324,VALID,0,
2012-05-17, 00:39:05,VALID,999.275,VALID,0,VALID,94.4623,VALID,0,VALID,23.4493,VALID,324,VALID,0,
2012-05-17, 00:40:05,VALID,999.308,VALID,0,VALID,94.5386,VALID,0,VALID,23.4475,VALID,324,VALID,0.116406,
2012-05-17, 00:41:05,VALID,999.329,VALID,0,VALID,94.6073,VALID,0,VALID,23.4475,VALID,324,VALID,0.00820312,
2012-05-17, 00:42:05,VALID,999.312,VALID,0,VALID,94.6454,VALID,0,VALID,23.4688,VALID,324,VALID,0.0289063,
2012-05-17, 00:43:05,VALID,999.331,VALID,0,VALID,94.6988,VALID,0,VALID,23.4475,VALID,324,VALID,0.176172,
2012-05-17, 00:44:05,VALID,999.307,VALID,0,VALID,94.737,VALID,0,VALID,23.4475,VALID,324,VALID,0.217969,
2012-05-17, 00:45:05,VALID,999.333,VALID,0,VALID,94.737,VALID,0,VALID,23.4671,VALID,324,VALID,0.311719,
2012-05-17, 00:46:05,VALID,999.32,VALID,0,VALID,94.7523,VALID,0,VALID,23.5061,VALID,324,VALID,0.300391,
2012-05-17, 00:47:05,VALID,999.306,VALID,0,VALID,94.7141,VALID,0,VALID,23.5256,VALID,324,VALID,0.234766,
2012-05-17, 00:48:05,VALID,999.314,VALID,0,VALID,94.6683,VALID,0,VALID,23.5664,VALID,324,VALID,0.294531,
2012-05-17, 00:49:05,VALID,999.295,VALID,0,VALID,94.6302,VALID,0,VALID,23.5664,VALID,324,VALID,0.0195313,
2012-05-17, 00:50:05,VALID,999.297,VALID,0,VALID,94.5386,VALID,0,VALID,23.5664,VALID,324,VALID,0,
2012-05-17, 00:51:05,VALID,999.313,VALID,0,VALID,94.4318,VALID,0,VALID,23.5469,VALID,324,VALID,0.613281,
2012-05-17, 00:52:05,VALID,999.312,VALID,0,VALID,94.4165,VALID,0,VALID,23.5079,VALID,324,VALID,0.488281,
2012-05-17, 00:53:05,VALID,999.326,VALID,0,VALID,94.325,VALID,0,VALID,23.4901,VALID,324,VALID,0.419141,
2012-05-17, 00:54:04,VALID,999.331,VALID,0,VALID,94.325,VALID,0,VALID,23.4103,VALID,324,VALID,0.387891,
2012-05-17, 00:55:04,VALID,999.347,VALID,0,VALID,94.4165,VALID,0,VALID,23.3908,VALID,324,VALID,0.441797,
2012-05-17, 00:56:04,VALID,999.336,VALID,0,VALID,94.5539,VALID,0,VALID,23.3908,VALID,324,VALID,0.311328,
2012-05-17, 00:57:04,VALID,999.341,VALID,0,VALID,94.6531,VALID,0,VALID,23.3713,VALID,324,VALID,0.342187,
2012-05-17, 00:58:04,VALID,999.344,VALID,0,VALID,94.6454,VALID,0,VALID,23.3127,VALID,324,VALID,0.153906,
2012-05-17, 00:59:04,VALID,999.363,VALID,0,VALID,94.7294,VALID,0,VALID,23.2932,VALID,324,VALID,0,
2012-05-17, 01:00:04,VALID,999.34,VALID,0,VALID,94.8133,VALID,0,VALID,23.2932,VALID,324,VALID,0,
2012-05-17, 01:01:04,VALID,999.34,VALID,0,VALID,94.8972,VALID,0,VALID,23.2719,VALID,324,VALID,0,
2012-05-17, 01:02:04,VALID,999.31,VALID,0,VALID,94.9888,VALID,0,VALID,23.2719,VALID,324,VALID,0,
2012-05-17, 01:03:04,VALID,999.337,VALID,0,VALID,95.0727,VALID,0,VALID,23.2719,VALID,324,VALID,0.305078,
2012-05-17, 01:04:04,VALID,999.321,VALID,0,VALID,95.1032,VALID,0,VALID,23.2915,VALID,324,VALID,0.370313,
2012-05-17, 01:05:04,VALID,999.289,VALID,0,VALID,95.1261,VALID,0,VALID,23.1939,VALID,324,VALID,0.315625,
2012-05-17, 01:06:04,VALID,999.334,VALID,0,VALID,95.1185,VALID,0,VALID,23.1549,VALID,324,VALID,0.430078,
2012-05-17, 01:07:04,VALID,999.339,VALID,0,VALID,95.1719,VALID,0,VALID,23.1531,VALID,324,VALID,0.4875,
2012-05-17, 01:08:04,VALID,999.349,VALID,0,VALID,95.2405,VALID,0,VALID,23.1939,VALID,324,VALID,0.584766,
2012-05-17, 01:09:04,VALID,999.342,VALID,0,VALID,95.2634,VALID,0,VALID,23.2329,VALID,324,VALID,0.583984,
2012-05-17, 01:10:04,VALID,999.335,VALID,0,VALID,95.294,VALID,0,VALID,23.2312,VALID,324,VALID,0.523438,
2012-05-17, 01:11:04,VALID,999.349,VALID,0,VALID,95.3397,VALID,0,VALID,23.2329,VALID,324,VALID,0.487891,
2012-05-17, 01:12:04,VALID,999.359,VALID,0,VALID,95.3779,VALID,0,VALID,23.2312,VALID,324,VALID,0.400781,
2012-05-17, 01:13:04,VALID,999.372,VALID,0,VALID,95.3779,VALID,0,VALID,23.2329,VALID,324,VALID,0.389453,
2012-05-17, 01:14:04,VALID,999.307,VALID,0,VALID,95.4084,VALID,0,VALID,23.2524,VALID,324,VALID,0.356641,
2012-05-17, 01:15:04,VALID,999.327,VALID,0,VALID,95.4237,VALID,0,VALID,23.2329,VALID,324,VALID,0.252734,
2012-05-17, 01:16:04,VALID,999.316,VALID,0,VALID,95.4465,VALID,0,VALID,23.2329,VALID,324,VALID,0.369922,
2012-05-17, 01:17:04,VALID,999.293,VALID,0,VALID,95.4465,VALID,0,VALID,23.2329,VALID,324,VALID,0.538672,
2012-05-17, 01:18:04,VALID,999.294,VALID,0,VALID,95.4465,VALID,0,VALID,23.2524,VALID,324,VALID,0.602344,
2012-05-17, 01:19:04,VALID,999.311,VALID,0,VALID,95.4694,VALID,0,VALID,23.2117,VALID,324,VALID,0.551172,
2012-05-17, 01:20:04,VALID,999.295,VALID,0,VALID,95.4771,VALID,0,VALID,23.2329,VALID,324,VALID,0.513672,
2012-05-17, 01:21:04,VALID,999.305,VALID,0,VALID,95.4618,VALID,0,VALID,23.2134,VALID,324,VALID,0.674219,
2012-05-17, 01:22:04,VALID,999.272,VALID,0,VALID,95.4694,VALID,0,VALID,23.2329,VALID,324,VALID,0.695703,
2012-05-17, 01:23:04,VALID,999.275,VALID,0,VALID,95.4923,VALID,0,VALID,23.1921,VALID,356,VALID,0.833984,
2012-05-17, 01:24:04,VALID,999.227,VALID,0,VALID,95.4847,VALID,0,VALID,23.1354,VALID,11,VALID,0.901953,
2012-05-17, 01:25:04,VALID,999.253,VALID,0,VALID,95.4847,VALID,0,VALID,23.1726,VALID,27,VALID,0.936719,
2012-05-17, 01:26:04,VALID,999.242,VALID,0,VALID,95.5228,VALID,0,VALID,23.1336,VALID,30,VALID,1.09844,
2012-05-17, 01:27:04,VALID,999.201,VALID,0,VALID,95.4847,VALID,0,VALID,23.1159,VALID,30,VALID,1.0875,
2012-05-17, 01:28:04,VALID,999.235,VALID,0,VALID,95.4465,VALID,0,VALID,23.0556,VALID,36,VALID,1.27344,
2012-05-17, 01:29:04,VALID,999.213,VALID,0,VALID,95.4084,VALID,0,VALID,23.0769,VALID,36,VALID,1.3875,
2012-05-17, 01:30:04,VALID,999.245,VALID,0,VALID,95.4008,VALID,0,VALID,23.0556,VALID,43,VALID,1.50195,
2012-05-17, 01:31:04,VALID,999.23,VALID,0,VALID,95.355,VALID,0,VALID,23.0361,VALID,46,VALID,1.42969,
2012-05-17, 01:32:04,VALID,999.224,VALID,0,VALID,95.3703,VALID,0,VALID,23.0769,VALID,48,VALID,1.55586,
2012-05-17, 01:33:04,VALID,999.235,VALID,0,VALID,95.3474,VALID,0,VALID,23.0751,VALID,50,VALID,1.61719,
2012-05-17, 01:34:04,VALID,999.244,VALID,0,VALID,95.3703,VALID,0,VALID,23.0964,VALID,52,VALID,1.59219,
2012-05-17, 01:35:04,VALID,999.233,VALID,0,VALID,95.3779,VALID,0,VALID,23.0751,VALID,53,VALID,1.7457,
2012-05-17, 01:36:04,VALID,999.241,VALID,0,VALID,95.3855,VALID,0,VALID,23.1159,VALID,51,VALID,1.6582,
2012-05-17, 01:37:04,VALID,999.219,VALID,0,VALID,95.4008,VALID,0,VALID,23.0964,VALID,49,VALID,1.42656,
2012-05-17, 01:38:04,VALID,999.2,VALID,0,VALID,95.4084,VALID,0,VALID,23.0964,VALID,48,VALID,1.14961,
2012-05-17, 01:39:04,VALID,999.247,VALID,0,VALID,95.4389,VALID,0,VALID,23.0946,VALID,51,VALID,1.18906,
2012-05-17, 01:40:04,VALID,999.225,VALID,0,VALID,95.4389,VALID,0,VALID,23.0964,VALID,51,VALID,1.2418,
2012-05-17, 01:41:04,VALID,999.232,VALID,0,VALID,95.4694,VALID,0,VALID,23.1159,VALID,51,VALID,1.09063,
2012-05-17, 01:42:04,VALID,999.216,VALID,0,VALID,95.4694,VALID,0,VALID,23.0964,VALID,51,VALID,1.09531,
2012-05-17, 01:43:04,VALID,999.199,VALID,0,VALID,95.4694,VALID,0,VALID,23.0964,VALID,50,VALID,1.08125,
2012-05-17, 01:44:04,VALID,999.227,VALID,0,VALID,95.5,VALID,0,VALID,23.0556,VALID,50,VALID,0.817187,
2012-05-17, 01:45:04,VALID,999.183,VALID,0,VALID,95.5228,VALID,0,VALID,23.0769,VALID,50,VALID,0.803906,
2012-05-17, 01:46:04,VALID,999.171,VALID,0,VALID,95.4923,VALID,0.104696,VALID,23.0573,VALID,51,VALID,0.642578,
2012-05-17, 01:47:04,VALID,999.172,VALID,0,VALID,95.5152,VALID,0,VALID,23.0183,VALID,54,VALID,0.407422,
2012-05-17, 01:48:04,VALID,999.138,VALID,0,VALID,95.4847,VALID,0,VALID,22.9793,VALID,54,VALID,0.617188,
2012-05-17, 01:49:04,VALID,999.142,VALID,0,VALID,95.4923,VALID,0,VALID,22.9793,VALID,54,VALID,0.755078,
2012-05-17, 01:50:04,VALID,999.104,VALID,0,VALID,95.4771,VALID,0,VALID,22.9598,VALID,54,VALID,0.573047,
2012-05-17, 01:51:04,VALID,999.125,VALID,0,VALID,95.5,VALID,0,VALID,22.9598,VALID,54,VALID,0.707031,
2012-05-17, 01:52:04,VALID,999.083,VALID,0,VALID,95.4694,VALID,0,VALID,22.9385,VALID,54,VALID,0.720312,
2012-05-17, 01:53:04,VALID,999.113,VALID,0,VALID,95.4771,VALID,0,VALID,22.9385,VALID,54,VALID,0.704297,
2012-05-17, 01:54:04,VALID,999.085,VALID,0,VALID,95.4771,VALID,0,VALID,22.9581,VALID,54,VALID,0.508984,
2012-05-17, 01:55:04,VALID,999.078,VALID,0,VALID,95.5076,VALID,0,VALID,22.9793,VALID,54,VALID,0.277734,
2012-05-17, 01:56:04,VALID,999.062,VALID,0,VALID,95.5228,VALID,0,VALID,22.9385,VALID,54,VALID,0,
2012-05-17, 01:57:04,VALID,999.046,VALID,0,VALID,95.5381,VALID,0,VALID,22.9208,VALID,54,VALID,0,
2012-05-17, 01:58:04,VALID,999.026,VALID,0,VALID,95.5228,VALID,0,VALID,22.9013,VALID,54,VALID,0,
2012-05-17, 01:59:04,VALID,998.999,VALID,0,VALID,95.5152,VALID,0,VALID,22.8623,VALID,54,VALID,0,
2012-05-17, 02:00:04,VALID,999.003,VALID,0,VALID,95.5228,VALID,0,VALID,22.8623,VALID,54,VALID,0,
2012-05-17, 02:01:04,VALID,999.019,VALID,0,VALID,95.5305,VALID,0,VALID,22.8427,VALID,54,VALID,0,
2012-05-17, 02:02:04,VALID,999.036,VALID,0,VALID,95.5305,VALID,0,VALID,22.8232,VALID,54,VALID,0.317187,
2012-05-17, 02:03:04,VALID,999.009,VALID,0,VALID,95.5457,VALID,0,VALID,22.8037,VALID,54,VALID,0.460156,
2012-05-17, 02:04:04,VALID,998.995,VALID,0,VALID,95.5305,VALID,0.104696,VALID,22.8037,VALID,54,VALID,0.710938,
2012-05-17, 02:05:04,VALID,999.003,VALID,0,VALID,95.5457,VALID,0,VALID,22.8037,VALID,53,VALID,0.703125,
2012-05-17, 02:06:04,VALID,998.986,VALID,0,VALID,95.5686,VALID,0,VALID,22.8232,VALID,40,VALID,0.752344,
2012-05-17, 02:07:04,VALID,998.96,VALID,0,VALID,95.5839,VALID,0,VALID,22.8623,VALID,40,VALID,0.792969,
2012-05-17, 02:08:04,VALID,998.956,VALID,0,VALID,95.5686,VALID,0,VALID,22.9013,VALID,40,VALID,0.730859,
2012-05-17, 02:09:04,VALID,998.947,VALID,0,VALID,95.5839,VALID,0,VALID,22.9208,VALID,55,VALID,0.727344,
2012-05-17, 02:10:04,VALID,998.973,VALID,0,VALID,95.5991,VALID,0,VALID,22.9403,VALID,55,VALID,0.618359,
2012-05-17, 02:11:04,VALID,998.999,VALID,0,VALID,95.622,VALID,0,VALID,22.9385,VALID,55,VALID,0.573438,
2012-05-17, 02:12:04,VALID,998.968,VALID,0,VALID,95.6525,VALID,0,VALID,22.9208,VALID,55,VALID,0.657422,
2012-05-17, 02:13:04,VALID,998.997,VALID,0,VALID,95.6297,VALID,0,VALID,22.9598,VALID,55,VALID,0.533984,
2012-05-17, 02:14:04,VALID,999.007,VALID,0,VALID,95.6297,VALID,0.104696,VALID,22.919,VALID,55,VALID,0.537109,
2012-05-17, 02:15:04,VALID,998.994,VALID,0,VALID,95.6144,VALID,0.104696,VALID,22.9385,VALID,55,VALID,0.4,
2012-05-17, 02:16:04,VALID,998.991,VALID,0,VALID,95.6297,VALID,0,VALID,22.9598,VALID,55,VALID,0.313281,
2012-05-17, 02:17:04,VALID,999.002,VALID,0,VALID,95.6144,VALID,0,VALID,22.9385,VALID,55,VALID,0.370703,
2012-05-17, 02:18:04,VALID,999.013,VALID,0,VALID,95.622,VALID,0,VALID,22.942,VALID,55,VALID,0.4,
2012-05-17, 02:19:04,VALID,999.039,VALID,0,VALID,95.6144,VALID,0,VALID,22.9615,VALID,55,VALID,0.542969,
2012-05-17, 02:20:04,VALID,999.039,VALID,0,VALID,95.622,VALID,0,VALID,22.9403,VALID,55,VALID,0.671094,
2012-05-17, 02:21:04,VALID,999.024,VALID,0,VALID,95.6068,VALID,0,VALID,22.9811,VALID,55,VALID,0.7,
2012-05-17, 02:22:04,VALID,999.063,VALID,0,VALID,95.6068,VALID,0,VALID,22.9793,VALID,55,VALID,0.678125,
2012-05-17, 02:23:04,VALID,999.088,VALID,0,VALID,95.6144,VALID,0,VALID,23.0183,VALID,55,VALID,0.526953,
2012-05-17, 02:24:04,VALID,999.079,VALID,0,VALID,95.6068,VALID,0,VALID,23.0396,VALID,55,VALID,0.554688,
2012-05-17, 02:25:04,VALID,999.088,VALID,0,VALID,95.6068,VALID,0,VALID,23.0183,VALID,55,VALID,0.619141,
2012-05-17, 02:26:04,VALID,999.124,VALID,0,VALID,95.6297,VALID,0,VALID,22.9988,VALID,55,VALID,0.539844,
2012-05-17, 02:27:04,VALID,999.144,VALID,0,VALID,95.5839,VALID,0,VALID,22.9793,VALID,55,VALID,0.362891,
2012-05-17, 02:28:04,VALID,999.128,VALID,0,VALID,95.5686,VALID,0,VALID,22.9793,VALID,55,VALID,0.2625,
2012-05-17, 02:29:04,VALID,999.122,VALID,0,VALID,95.5305,VALID,0,VALID,22.9598,VALID,55,VALID,0.166016,
2012-05-17, 02:30:04,VALID,999.121,VALID,0,VALID,95.5305,VALID,0,VALID,22.9598,VALID,55,VALID,0.100391,
2012-05-17, 02:31:04,VALID,999.112,VALID,0,VALID,95.5152,VALID,0,VALID,22.9598,VALID,55,VALID,0,
2012-05-17, 02:32:04,VALID,999.12,VALID,0,VALID,95.5228,VALID,0,VALID,22.9811,VALID,55,VALID,0,
2012-05-17, 02:33:04,VALID,999.126,VALID,0,VALID,95.5076,VALID,0,VALID,22.9385,VALID,55,VALID,0,
2012-05-17, 02:34:04,VALID,999.116,VALID,0,VALID,95.5152,VALID,0,VALID,22.9793,VALID,55,VALID,0,
2012-05-17, 02:35:04,VALID,999.148,VALID,0,VALID,95.5076,VALID,0,VALID,22.9776,VALID,55,VALID,0,
2012-05-17, 02:36:04,VALID,999.15,VALID,0,VALID,95.5305,VALID,0.104696,VALID,22.9776,VALID,55,VALID,0,
2012-05-17, 02:37:04,VALID,999.131,VALID,0,VALID,95.5457,VALID,0,VALID,22.9776,VALID,55,VALID,0,
2012-05-17, 02:38:04,VALID,999.179,VALID,0,VALID,95.5534,VALID,0,VALID,22.9581,VALID,55,VALID,0,
2012-05-17, 02:39:04,VALID,999.144,VALID,0,VALID,95.5457,VALID,0,VALID,22.9403,VALID,55,VALID,0,
2012-05-17, 02:40:04,VALID,999.183,VALID,0,VALID,95.5457,VALID,0,VALID,22.919,VALID,55,VALID,0,
2012-05-17, 02:41:04,VALID,999.156,VALID,0,VALID,95.5457,VALID,0.104696,VALID,22.9385,VALID,55,VALID,0,
2012-05-17, 02:42:04,VALID,999.169,VALID,0,VALID,95.5534,VALID,0,VALID,22.9581,VALID,55,VALID,0,
2012-05-17, 02:43:04,VALID,999.136,VALID,0,VALID,95.5534,VALID,0,VALID,22.9385,VALID,55,VALID,0,
2012-05-17, 02:44:04,VALID,999.15,VALID,0,VALID,95.5762,VALID,0,VALID,22.9598,VALID,55,VALID,0,
2012-05-17, 02:45:04,VALID,999.145,VALID,0,VALID,95.5762,VALID,0.104696,VALID,22.919,VALID,55,VALID,0.347266,
2012-05-17, 02:46:04,VALID,999.111,VALID,0,VALID,95.561,VALID,0,VALID,22.919,VALID,81,VALID,0.696094,
2012-05-17, 02:47:04,VALID,999.099,VALID,0,VALID,95.561,VALID,0,VALID,22.9988,VALID,139,VALID,0.744922,
2012-05-17, 02:48:04,VALID,999.089,VALID,0,VALID,95.5534,VALID,0,VALID,23.0183,VALID,139,VALID,0.948047,
2012-05-17, 02:49:04,VALID,999.068,VALID,0,VALID,95.5457,VALID,0,VALID,23.0769,VALID,139,VALID,0.862109,
2012-05-17, 02:50:04,VALID,999.08,VALID,0,VALID,95.5228,VALID,0,VALID,23.1336,VALID,139,VALID,0.8625,
2012-05-17, 02:51:04,VALID,999.073,VALID,0,VALID,95.4923,VALID,0,VALID,23.1744,VALID,145,VALID,0.928125,
2012-05-17, 02:52:04,VALID,999.056,VALID,0,VALID,95.4237,VALID,0,VALID,23.2117,VALID,146,VALID,1.03242,
2012-05-17, 02:53:04,VALID,999.044,VALID,0,VALID,95.3397,VALID,0,VALID,23.2507,VALID,152,VALID,1.22578,
2012-05-17, 02:54:04,VALID,999.051,VALID,0,VALID,95.1795,VALID,0,VALID,23.2702,VALID,170,VALID,1.07695,
2012-05-17, 02:55:04,VALID,998.986,VALID,0,VALID,95.0574,VALID,0.104696,VALID,23.3092,VALID,168,VALID,1.12461,
2012-05-17, 02:56:04,VALID,998.996,VALID,0,VALID,94.9583,VALID,0,VALID,23.3482,VALID,168,VALID,1.18477,
2012-05-17, 02:57:04,VALID,998.988,VALID,0,VALID,94.8057,VALID,0,VALID,23.389,VALID,160,VALID,0.994141,
2012-05-17, 02:58:04,VALID,998.943,VALID,0,VALID,94.5844,VALID,0,VALID,23.389,VALID,152,VALID,0.909375,
2012-05-17, 02:59:04,VALID,998.931,VALID,0,VALID,94.3708,VALID,0,VALID,23.3677,VALID,151,VALID,0.928516,
2012-05-17, 03:00:04,VALID,998.911,VALID,0,VALID,94.1953,VALID,0,VALID,23.3677,VALID,150,VALID,1.26367,
2012-05-17, 03:01:04,VALID,998.885,VALID,0,VALID,93.9511,VALID,0,VALID,23.3695,VALID,150,VALID,0.930859,
2012-05-17, 03:02:04,VALID,998.867,VALID,0,VALID,93.6917,VALID,0,VALID,23.389,VALID,150,VALID,1.31992,
2012-05-17, 03:03:04,VALID,998.832,VALID,0,VALID,93.2797,VALID,0,VALID,23.428,VALID,150,VALID,1.44687,
2012-05-17, 03:04:04,VALID,998.835,VALID,0,VALID,92.8296,VALID,0,VALID,23.4475,VALID,150,VALID,1.12656,
2012-05-17, 03:05:04,VALID,998.844,VALID,0,VALID,92.3566,VALID,0,VALID,23.4458,VALID,150,VALID,1.19062,
2012-05-17, 03:06:04,VALID,998.834,VALID,0,VALID,92.059,VALID,0,VALID,23.4458,VALID,154,VALID,1.44297,
2012-05-17, 03:07:04,VALID,998.836,VALID,0,VALID,91.9064,VALID,0,VALID,23.4653,VALID,151,VALID,1.55508,
2012-05-17, 03:08:04,VALID,998.865,VALID,0,VALID,91.7691,VALID,0,VALID,23.5061,VALID,138,VALID,1.25703,
2012-05-17, 03:09:04,VALID,998.865,VALID,0,VALID,91.6165,VALID,0,VALID,23.5256,VALID,138,VALID,1.27344,
2012-05-17, 03:10:04,VALID,998.856,VALID,0,VALID,91.4715,VALID,0,VALID,23.5043,VALID,132,VALID,1.14023,
2012-05-17, 03:11:04,VALID,998.843,VALID,0,VALID,91.296,VALID,0,VALID,23.5061,VALID,129,VALID,1.11914,
2012-05-17, 03:12:04,VALID,998.859,VALID,0,VALID,91.2045,VALID,0.104696,VALID,23.5043,VALID,124,VALID,1.07109,
2012-05-17, 03:13:04,VALID,998.864,VALID,0,VALID,91.1434,VALID,0,VALID,23.5256,VALID,121,VALID,1.00469,
2012-05-17, 03:14:04,VALID,998.872,VALID,0,VALID,91.1282,VALID,0,VALID,23.5256,VALID,129,VALID,1.29336,
2012-05-17, 03:15:04,VALID,998.872,VALID,0,VALID,91.0137,VALID,0,VALID,23.5238,VALID,129,VALID,1.36797,
2012-05-17, 03:16:04,VALID,998.876,VALID,0,VALID,90.8383,VALID,0,VALID,23.5841,VALID,135,VALID,1.4125,
2012-05-17, 03:17:04,VALID,998.874,VALID,0,VALID,90.5865,VALID,0,VALID,23.6232,VALID,136,VALID,1.58398,
2012-05-17, 03:18:04,VALID,998.865,VALID,0,VALID,90.2737,VALID,0,VALID,23.6214,VALID,135,VALID,1.67656,
2012-05-17, 03:19:04,VALID,998.858,VALID,0,VALID,90.0143,VALID,0,VALID,23.6604,VALID,131,VALID,1.45742,
2012-05-17, 03:20:04,VALID,998.859,VALID,0,VALID,89.8083,VALID,0,VALID,23.7012,VALID,132,VALID,1.69141,
2012-05-17, 03:21:04,VALID,998.841,VALID,0,VALID,89.5489,VALID,0,VALID,23.7207,VALID,134,VALID,1.50156,
2012-05-17, 03:22:04,VALID,998.827,VALID,0,VALID,89.3963,VALID,0,VALID,23.7402,VALID,134,VALID,2.05352,
2012-05-17, 03:23:04,VALID,998.841,VALID,0,VALID,89.114,VALID,0,VALID,23.7988,VALID,135,VALID,1.64258,
2012-05-17, 03:24:04,VALID,998.835,VALID,0,VALID,88.9309,VALID,0,VALID,23.7988,VALID,137,VALID,1.80352,
2012-05-17, 03:25:04,VALID,998.808,VALID,0,VALID,88.8088,VALID,0,VALID,23.8183,VALID,135,VALID,1.77969,
2012-05-17, 03:26:04,VALID,998.8,VALID,0,VALID,88.6638,VALID,0,VALID,23.8573,VALID,135,VALID,1.50234,
2012-05-17, 03:27:04,VALID,998.818,VALID,0,VALID,88.5723,VALID,0,VALID,23.836,VALID,131,VALID,1.94414,
2012-05-17, 03:28:04,VALID,998.755,VALID,0,VALID,88.3663,VALID,0,VALID,23.8768,VALID,133,VALID,2.19141,
2012-05-17, 03:29:04,VALID,998.785,VALID,0,VALID,88.0992,VALID,0,VALID,23.9354,VALID,136,VALID,1.95703,
2012-05-17, 03:30:04,VALID,998.774,VALID,0,VALID,87.9543,VALID,0,VALID,23.9354,VALID,132,VALID,1.83164,
2012-05-17, 03:31:04,VALID,998.774,VALID,0,VALID,88,VALID,0,VALID,23.9354,VALID,133,VALID,1.59727,
2012-05-17, 03:32:04,VALID,998.793,VALID,0,VALID,88.0916,VALID,0,VALID,23.9159,VALID,132,VALID,1.18906,
2012-05-17, 03:33:04,VALID,998.78,VALID,0,VALID,88.0916,VALID,0,VALID,23.8963,VALID,130,VALID,1.49453,
2012-05-17, 03:34:04,VALID,998.766,VALID,0,VALID,88.1297,VALID,0,VALID,23.8982,VALID,129,VALID,1.13437,
2012-05-17, 03:35:04,VALID,998.768,VALID,0,VALID,88.206,VALID,0,VALID,23.8982,VALID,135,VALID,0.972656,
2012-05-17, 03:36:04,VALID,998.771,VALID,0,VALID,88.4044,VALID,0,VALID,23.8396,VALID,141,VALID,0.889453,
2012-05-17, 03:37:04,VALID,998.779,VALID,0,VALID,88.5417,VALID,0,VALID,23.8396,VALID,141,VALID,0.509375,
2012-05-17, 03:38:04,VALID,998.81,VALID,0,VALID,88.4197,VALID,0,VALID,23.8396,VALID,141,VALID,0.127344,
2012-05-17, 03:39:04,VALID,998.799,VALID,0,VALID,88.3586,VALID,0,VALID,23.8201,VALID,141,VALID,0.289453,
2012-05-17, 03:40:04,VALID,998.793,VALID,0,VALID,88.4731,VALID,0,VALID,23.8006,VALID,142,VALID,0.478906,
2012-05-17, 03:41:04,VALID,998.795,VALID,0,VALID,88.5265,VALID,0,VALID,23.8006,VALID,185,VALID,0.885156,
2012-05-17, 03:42:04,VALID,998.755,VALID,0,VALID,88.3739,VALID,0,VALID,23.8378,VALID,185,VALID,0.548828,
2012-05-17, 03:43:04,VALID,998.759,VALID,0,VALID,88.0229,VALID,0,VALID,23.8786,VALID,185,VALID,0.86875,
2012-05-17, 03:44:04,VALID,998.782,VALID,0,VALID,87.6949,VALID,0,VALID,23.8768,VALID,180,VALID,0.724609,
2012-05-17, 03:45:04,VALID,998.732,VALID,0,VALID,87.5651,VALID,0,VALID,23.9372,VALID,180,VALID,0.581641,
2012-05-17, 03:46:04,VALID,998.74,VALID,0,VALID,87.466,VALID,0,VALID,23.9762,VALID,180,VALID,0.653125,
2012-05-17, 03:47:04,VALID,998.729,VALID,0,VALID,87.0692,VALID,0,VALID,23.9957,VALID,144,VALID,0.525391,